N3PB Weather Reports


time (UTC)temp
C
wind
direction
speed
KPH
gust
KPH
rain 1hr
cm
rain 24hr
cm
rain mn
cm
humidity
%
barometer
mb
20260510225646 23 239 0.0 0.0 0.00 0.00 0.00 46 1016.2
20260510225144 24 214 0.0 0.0 0.00 0.00 0.00 48 1016.2
20260510224646 24 215 0.0 0.0 0.00 0.00 0.00 47 1016.2
20260510224143 24 215 0.0 0.0 0.00 0.00 0.00 47 1016.1
20260510223640 24 233 0.0 0.0 0.00 0.00 0.00 47 1016.1
20260510223147 24 203 0.0 0.0 0.00 0.00 0.00 45 1016.0
20260510222640 24 203 0.0 0.0 0.00 0.00 0.00 44 1016.1
20260510222140 25 229 0.0 0.0 0.00 0.00 0.00 44 1016.0
20260510221640 25 229 0.0 0.0 0.00 0.00 0.00 44 1015.8
20260510221144 25 250 0.0 0.0 0.00 0.00 0.00 44 1015.9
20260510220644 25 231 0.0 0.0 0.00 0.00 0.00 45 1015.7
20260510220140 25 222 0.0 0.0 0.00 0.00 0.00 45 1015.6
20260510215643 25 319 0.0 0.0 0.00 0.00 0.00 46 1015.6
20260510215150 24 207 0.0 0.0 0.00 0.00 0.00 46 1015.6
20260510214649 24 213 0.0 0.0 0.00 0.00 0.00 44 1015.6
20260510214143 24 293 0.0 0.0 0.00 0.00 0.00 46 1015.6
20260510213647 24 226 0.0 0.0 0.00 0.00 0.00 46 1015.7
20260510213140 24 182 0.0 0.0 0.00 0.00 0.00 44 1015.6
20260510212640 23 183 0.0 0.0 0.00 0.00 0.00 47 1015.7
20260510212143 23 266 0.0 0.0 0.00 0.00 0.00 48 1015.6
20260510211641 23 263 0.0 0.0 0.00 0.00 0.00 44 1015.5
20260510211140 23 280 0.0 0.0 0.00 0.00 0.00 44 1015.5
20260510210649 23 304 0.0 0.0 0.00 0.00 0.00 44 1015.4
20260510210141 23 309 0.0 0.0 0.00 0.00 0.00 43 1015.4
20260510205641 24 203 0.0 0.0 0.00 0.00 0.00 43 1015.3
20260510205141 24 275 0.0 0.0 0.00 0.00 0.00 43 1015.2
20260510204640 25 327 0.0 0.0 0.00 0.00 0.00 43 1015.3
20260510204143 25 256 0.0 0.0 0.00 0.00 0.00 42 1015.2
20260510203643 25 298 0.0 0.0 0.00 0.00 0.00 42 1015.1
20260510203147 25 300 0.0 0.0 0.00 0.00 0.00 42 1015.0
20260510202640 25 219 0.0 0.0 0.00 0.00 0.00 43 1015.0
20260510202141 25 290 0.0 0.0 0.00 0.00 0.00 41 1014.9
20260510201640 25 296 0.0 0.0 0.00 0.00 0.00 43 1014.9
20260510201140 25 336 0.0 0.0 0.00 0.00 0.00 45 1014.8
20260510200641 25 336 0.0 0.0 0.00 0.00 0.00 44 1015.0
20260510200144 25 198 0.0 0.0 0.00 0.00 0.00 40 1014.9
20260510195646 25 238 0.0 0.0 0.00 0.00 0.00 43 1015.1
20260510195140 25 255 0.0 0.0 0.00 0.00 0.00 43 1015.1
20260510194640 25 285 0.0 0.0 0.00 0.00 0.00 43 1015.0
20260510194142 26 304 0.0 0.0 0.00 0.00 0.00 44 1015.0
20260510193640 26 98 0.0 0.0 0.00 0.00 0.00 41 1014.9
20260510193140 26 327 0.0 0.0 0.00 0.00 0.00 43 1014.8
20260510192640 26 326 0.0 0.0 0.00 0.00 0.00 45 1014.7
20260510192140 25 265 0.0 0.0 0.00 0.00 0.00 45 1015.0
20260510191643 25 216 0.0 0.0 0.00 0.00 0.00 43 1015.0
20260510191140 25 254 0.0 0.0 0.00 0.00 0.00 48 1015.1
20260510190649 25 234 0.0 0.0 0.00 0.00 0.00 49 1015.2
20260510190143 25 286 0.0 0.0 0.00 0.00 0.00 47 1015.3
20260510185640 25 295 0.0 0.0 0.00 0.00 0.00 44 1015.3
20260510185140 25 312 0.0 0.0 0.00 0.00 0.00 46 1015.2
20260510184640 25 275 0.0 0.0 0.00 0.00 0.00 44 1015.1
20260510184140 25 231 0.0 0.0 0.00 0.00 0.00 43 1015.0
20260510183640 26 216 0.0 0.0 0.00 0.00 0.00 43 1014.9
20260510183149 26 337 0.0 0.0 0.00 0.00 0.00 46 1015.0
20260510182640 25 279 0.0 0.0 0.00 0.00 0.00 46 1014.9
20260510182143 25 229 0.0 0.0 0.00 0.00 0.00 46 1015.0
20260510181640 25 342 0.0 0.0 0.00 0.00 0.00 43 1015.2
20260510181140 25 254 0.0 0.0 0.00 0.00 0.00 45 1015.0
20260510180643 25 190 0.0 0.0 0.00 0.00 0.00 44 1015.0
20260510180141 25 242 0.0 0.0 0.00 0.00 0.00 42 1015.1
20260510175640 25 327 0.0 0.0 0.00 0.00 0.00 46 1015.1
20260510175140 25 263 0.0 0.0 0.00 0.00 0.00 48 1015.1
20260510174640 25 250 0.0 0.0 0.00 0.00 0.00 45 1015.2
20260510174143 25 313 0.0 0.0 0.00 0.00 0.00 48 1015.1
20260510173640 25 302 0.0 0.0 0.00 0.00 0.00 44 1015.1
20260510173146 25 272 0.0 0.0 0.00 0.00 0.00 45 1015.1
20260510172643 24 90 0.0 0.0 0.00 0.00 0.00 48 1015.1
20260510172149 24 250 0.0 0.0 0.00 0.00 0.00 50 1015.1
20260510171643 23 210 0.0 0.0 0.00 0.00 0.00 46 1015.2
20260510171143 23 175 0.0 0.0 0.00 0.00 0.00 47 1015.2
20260510170646 24 185 0.0 0.0 0.00 0.00 0.00 48 1015.3
20260510170143 23 222 0.0 0.0 0.00 0.00 0.00 47 1015.3
20260510165646 23 226 0.0 0.0 0.00 0.00 0.00 48 1015.2
20260510165140 23 218 0.0 0.0 0.00 0.00 0.00 49 1015.2
20260510164643 23 313 0.0 0.0 0.00 0.00 0.00 49 1015.3
20260510164143 23 215 0.0 0.0 0.00 0.00 0.00 53 1015.2
20260510163640 23 190 0.0 0.0 0.00 0.00 0.00 51 1015.4
20260510163143 23 187 0.0 0.0 0.00 0.00 0.00 50 1015.3
20260510162640 23 252 0.0 0.0 0.00 0.00 0.00 52 1015.4
20260510162140 23 90 0.0 0.0 0.00 0.00 0.00 51 1015.3
20260510161640 23 272 0.0 0.0 0.00 0.00 0.00 53 1015.3
20260510161143 23 303 0.0 0.0 0.00 0.00 0.00 53 1015.2
20260510160640 23 316 0.0 0.0 0.00 0.00 0.00 53 1015.1
20260510160146 23 244 0.0 0.0 0.00 0.00 0.00 56 1015.1
20260510155640 22 314 0.0 0.0 0.00 0.00 0.00 55 1015.2
20260510155149 22 304 0.0 0.0 0.00 0.00 0.00 60 1015.3
20260510154640 22 306 0.0 0.0 0.00 0.00 0.00 55 1015.3
20260510154140 22 205 0.0 0.0 0.00 0.00 0.00 56 1015.2
20260510153643 22 188 0.0 0.0 0.00 0.00 0.00 56 1015.2
20260510153140 22 226 0.0 0.0 0.00 0.00 0.00 56 1015.1
20260510152640 22 252 0.0 0.0 0.00 0.00 0.00 56 1015.3
20260510152140 22 198 0.0 0.0 0.00 0.00 0.00 56 1015.2
20260510151646 22 302 0.0 0.0 0.00 0.00 0.00 60 1015.1
20260510151143 22 251 0.0 0.0 0.00 0.00 0.00 58 1015.2
20260510150640 22 276 0.0 0.0 0.00 0.00 0.00 62 1015.1
20260510150143 21 286 0.0 0.0 0.00 0.00 0.00 62 1015.1
20260510145640 21 291 0.0 0.0 0.00 0.00 0.00 65 1015.2
20260510145143 21 336 0.0 0.0 0.00 0.00 0.00 63 1015.1
20260510144646 21 325 0.0 0.0 0.00 0.00 0.00 63 1015.0
20260510144140 21 175 0.0 0.0 0.00 0.00 0.00 64 1015.1
20260510143640 21 290 0.0 0.0 0.00 0.00 0.00 65 1015.0
20260510143140 21 237 0.0 0.0 0.00 0.00 0.00 64 1015.0
20260510142640 21 184 0.0 0.0 0.00 0.00 0.00 64 1015.1
20260510142140 20 150 0.0 0.0 0.00 0.00 0.00 66 1015.2
20260510141640 20 140 0.0 0.0 0.00 0.00 0.00 70 1015.2
20260510141143 20 48 0.0 0.0 0.00 0.00 0.00 71 1015.1
20260510140640 19 200 0.0 0.0 0.00 0.00 0.00 71 1015.1
20260510140143 19 250 0.0 0.0 0.00 0.00 0.00 74 1015.1
20260510135640 18 251 0.0 0.0 0.00 0.00 0.00 74 1015.0
20260510135140 18 252 0.0 0.0 0.00 0.00 0.00 75 1015.2
20260510134646 17 252 0.0 0.0 0.00 0.00 0.00 76 1015.3
20260510134143 17 252 0.0 0.0 0.00 0.00 0.00 79 1015.3
20260510133643 17 252 0.0 0.0 0.00 0.00 0.00 78 1015.4
20260510133143 17 252 0.0 0.0 0.00 0.00 0.00 80 1015.2
20260510132649 16 252 0.0 0.0 0.00 0.00 0.00 81 1015.3
20260510132146 16 252 0.0 0.0 0.00 0.00 0.00 82 1015.3
20260510131640 16 252 0.0 0.0 0.00 0.00 0.00 84 1015.2
20260510131140 15 252 0.0 0.0 0.00 0.00 0.00 85 1015.3
20260510130639 15 252 0.0 0.0 0.00 0.00 0.00 87 1015.3
20260510130140 14 252 0.0 0.0 0.00 0.00 0.00 90 1015.2
20260510125649 13 252 0.0 0.0 0.00 0.00 0.00 93 1015.3
20260510125142 13 252 0.0 0.0 0.00 0.00 0.00 95 1015.3
20260510124643 12 252 0.0 0.0 0.00 0.00 0.00 98 1015.4
20260510124149 11 252 0.0 0.0 0.00 0.00 0.00 99 1015.4
20260510123640 11 252 0.0 0.0 0.00 0.00 0.00 99 1015.3
20260510123146 10 252 0.0 0.0 0.00 0.00 0.00 99 1015.3
20260510122642 10 252 0.0 0.0 0.00 0.00 0.00 99 1015.3
20260510122140 9 252 0.0 0.0 0.00 0.00 0.00 99 1015.3
20260510121640 8 252 0.0 0.0 0.00 0.00 0.00 98 1015.2
20260510121140 8 252 0.0 0.0 0.00 0.00 0.00 96 1015.2
20260510120643 7 252 0.0 0.0 0.00 0.00 0.00 95 1015.2
20260510120140 7 252 0.0 0.0 0.00 0.00 0.00 95 1015.2
20260510115645 7 252 0.0 0.0 0.00 0.00 0.00 94 1015.2
20260510115142 7 252 0.0 0.0 0.00 0.00 0.00 94 1015.3
20260510114643 7 252 0.0 0.0 0.00 0.00 0.00 93 1015.3
20260510114140 7 252 0.0 0.0 0.00 0.00 0.00 93 1015.2
20260510113640 6 252 0.0 0.0 0.00 0.00 0.00 92 1015.2
20260510113139 6 252 0.0 0.0 0.00 0.00 0.00 91 1015.1
20260510112640 6 252 0.0 0.0 0.00 0.00 0.00 91 1014.9
20260510112139 6 252 0.0 0.0 0.00 0.00 0.00 90 1014.9
20260510111640 6 252 0.0 0.0 0.00 0.00 0.00 90 1014.9
20260510111143 6 252 0.0 0.0 0.00 0.00 0.00 89 1014.8
20260510110643 6 252 0.0 0.0 0.00 0.00 0.00 89 1014.8
20260510110143 6 252 0.0 0.0 0.00 0.00 0.00 88 1014.5
20260510105642 6 252 0.0 0.0 0.00 0.00 0.00 88 1014.4
20260510105139 6 252 0.0 0.0 0.00 0.00 0.00 88 1014.4
20260510104643 6 252 0.0 0.0 0.00 0.00 0.00 88 1014.4
20260510104140 7 252 0.0 0.0 0.00 0.00 0.00 87 1014.3
20260510103639 7 252 0.0 0.0 0.00 0.00 0.00 87 1014.3
20260510103139 7 252 0.0 0.0 0.00 0.00 0.00 87 1014.3
20260510102640 7 252 0.0 0.0 0.00 0.00 0.00 86 1014.3
20260510102140 7 252 0.0 0.0 0.00 0.00 0.00 86 1014.3
20260510101642 7 252 0.0 0.0 0.00 0.00 0.00 86 1014.2
20260510101142 7 252 0.0 0.0 0.00 0.00 0.00 85 1014.1
20260510100640 7 252 0.0 0.0 0.00 0.00 0.00 85 1014.1
20260510100143 8 252 0.0 0.0 0.00 0.00 0.00 85 1014.1
20260510095642 8 252 0.0 0.0 0.00 0.00 0.00 85 1014.2
20260510095139 8 252 0.0 0.0 0.00 0.00 0.00 85 1014.1
20260510094645 8 252 0.0 0.0 0.00 0.00 0.00 85 1014.0
20260510094140 8 252 0.0 0.0 0.00 0.00 0.00 86 1014.1
20260510093639 9 252 0.0 0.0 0.00 0.00 0.00 88 1014.0
20260510093143 9 252 0.0 0.0 0.00 0.00 0.00 90 1014.1
20260510092645 9 252 0.0 0.0 0.00 0.00 0.00 90 1014.1
20260510092146 10 252 0.0 0.0 0.00 0.00 0.00 90 1014.0
20260510091643 10 252 0.0 0.0 0.00 0.00 0.00 89 1014.0
20260510091139 10 252 0.0 0.0 0.00 0.00 0.00 90 1013.9
20260510090643 10 252 0.0 0.0 0.00 0.00 0.00 90 1014.0
20260510090142 10 252 0.0 0.0 0.00 0.00 0.00 91 1013.9
20260510085640 10 252 0.0 0.0 0.00 0.00 0.00 90 1013.9
20260510085145 10 252 0.0 0.0 0.00 0.00 0.00 90 1013.9
20260510084639 10 252 0.0 0.0 0.00 0.00 0.00 89 1013.9
20260510084143 10 252 0.0 0.0 0.00 0.00 0.00 91 1013.9
20260510083640 10 252 0.0 0.0 0.00 0.00 0.00 92 1014.0
20260510083139 10 252 0.0 0.0 0.00 0.00 0.00 93 1013.9
20260510082642 9 252 0.0 0.0 0.00 0.00 0.00 93 1013.9
20260510082140 9 252 0.0 0.0 0.00 0.00 0.00 93 1013.9
20260510081642 9 252 0.0 0.0 0.00 0.00 0.00 93 1014.0
20260510081139 8 252 0.0 0.0 0.00 0.00 0.00 93 1014.0
20260510080646 8 252 0.0 0.0 0.00 0.00 0.00 90 1013.9
20260510080143 8 252 0.0 0.0 0.00 0.00 0.00 88 1013.9
20260510075646 8 252 0.0 0.0 0.00 0.00 0.00 88 1013.9
20260510075142 8 252 0.0 0.0 0.00 0.00 0.00 88 1014.0
20260510074648 8 252 0.0 0.0 0.00 0.00 0.00 88 1014.0
20260510074140 8 252 0.0 0.0 0.00 0.00 0.00 87 1014.0
20260510073646 8 252 0.0 0.0 0.00 0.00 0.00 87 1014.0
20260510073142 8 252 0.0 0.0 0.00 0.00 0.00 87 1014.0
20260510072642 8 252 0.0 0.0 0.00 0.00 0.00 87 1014.0
20260510072143 8 252 0.0 0.0 0.00 0.00 0.00 87 1013.9
20260510071640 8 252 0.0 0.0 0.00 0.00 0.00 86 1013.7
20260510071139 8 252 0.0 0.0 0.00 0.00 0.00 86 1013.7
20260510070648 9 252 0.0 0.0 0.00 0.00 0.00 86 1013.7
20260510070149 9 252 0.0 0.0 0.00 0.00 0.00 86 1013.8
20260510065640 9 252 0.0 0.0 0.00 0.00 0.00 86 1013.8
20260510065139 9 252 0.0 0.0 0.00 0.00 0.00 85 1013.8
20260510064639 9 252 0.0 0.0 0.00 0.00 0.00 85 1013.8
20260510064142 10 252 0.0 0.0 0.00 0.00 0.00 84 1013.9
20260510063640 10 252 0.0 0.0 0.00 0.00 0.00 84 1014.0
20260510063145 10 252 0.0 0.0 0.00 0.00 0.00 84 1014.0
20260510062642 10 252 0.0 0.0 0.00 0.00 0.00 84 1014.1
20260510062145 10 252 0.0 0.0 0.00 0.00 0.00 83 1014.2
20260510061639 10 252 0.0 0.0 0.00 0.00 0.00 84 1014.1
20260510061139 10 252 0.0 0.0 0.00 0.00 0.00 84 1014.1
20260510060639 10 252 0.0 0.0 0.00 0.00 0.00 85 1014.0
20260510060139 10 252 0.0 0.0 0.00 0.00 0.00 85 1014.0
20260510055640 10 252 0.0 0.0 0.00 0.00 0.00 85 1014.1
20260510055148 10 252 0.0 0.0 0.00 0.00 0.00 84 1014.1
20260510054642 10 252 0.0 0.0 0.00 0.00 0.00 83 1014.2
20260510054142 10 252 0.0 0.0 0.00 0.00 0.00 83 1014.3
20260510053639 10 252 0.0 0.0 0.00 0.00 0.00 83 1014.2
20260510053142 10 252 0.0 0.0 0.00 0.00 0.00 83 1014.3
20260510052639 10 252 0.0 0.0 0.00 0.00 0.00 82 1014.2
20260510052139 11 252 0.0 0.0 0.00 0.00 0.00 82 1014.4
20260510051645 11 252 0.0 0.0 0.00 0.00 0.00 82 1014.4
20260510051142 11 252 0.0 0.0 0.00 0.00 0.00 83 1014.4
20260510050645 11 252 0.0 0.0 0.00 0.00 0.00 82 1014.4
20260510050142 11 252 0.0 0.0 0.00 0.00 0.00 82 1014.4
20260510045639 11 252 0.0 0.0 0.00 0.00 0.00 81 1014.5
20260510045139 11 252 0.0 0.0 0.00 0.00 0.00 81 1014.5
20260510044639 11 252 0.0 0.0 0.00 0.00 0.00 80 1014.4
20260510044142 11 252 0.0 0.0 0.00 0.00 0.00 80 1014.5
20260510043639 11 252 0.0 0.0 0.00 0.00 0.00 79 1014.5
20260510043139 11 252 0.0 0.0 0.00 0.00 0.00 79 1014.6
20260510042639 11 252 0.0 0.0 0.00 0.00 0.00 79 1014.6
20260510042139 11 252 0.0 0.0 0.00 0.00 0.00 79 1014.7
20260510041639 11 252 0.0 0.0 0.00 0.00 0.00 79 1014.5
20260510041142 11 252 0.0 0.0 0.00 0.00 0.00 79 1014.6
20260510040642 12 252 0.0 0.0 0.00 0.00 0.00 79 1014.5
20260510040142 12 252 0.0 0.0 0.00 0.00 0.00 78 1014.6
20260510035642 12 252 0.0 0.0 0.00 0.00 0.00 77 1014.5
20260510035139 12 252 0.0 0.0 0.00 0.00 0.00 77 1014.4
20260510034639 12 252 0.0 0.0 0.00 0.00 0.00 77 1014.4
20260510034142 12 251 0.0 0.0 0.00 0.00 0.00 76 1014.4
20260510033645 12 251 0.0 0.0 0.00 0.00 0.00 76 1014.4
20260510033142 13 251 0.0 0.0 0.00 0.00 0.00 75 1014.5
20260510032642 13 251 0.0 0.0 0.00 0.00 0.00 75 1014.5
20260510032139 13 251 0.0 0.0 0.00 0.00 0.00 74 1014.5
20260510031645 13 251 0.0 0.0 0.00 0.00 0.00 75 1014.4
20260510031142 13 251 0.0 0.0 0.00 0.00 0.00 75 1014.4
20260510030642 13 251 0.0 0.0 0.00 0.00 0.00 75 1014.5
20260510030142 13 251 0.0 0.0 0.00 0.00 0.00 76 1014.4
20260510025639 13 251 0.0 0.0 0.00 0.00 0.00 76 1014.4
20260510025145 13 251 0.0 0.0 0.00 0.00 0.00 76 1014.6
20260510024642 13 251 0.0 0.0 0.00 0.00 0.00 76 1014.5
20260510024142 13 251 0.0 0.0 0.00 0.00 0.00 75 1014.5
20260510023645 13 251 0.0 0.0 0.00 0.00 0.00 75 1014.4
20260510023139 13 251 0.0 0.0 0.00 0.00 0.00 75 1014.4
20260510022639 13 251 0.0 0.0 0.00 0.00 0.00 75 1014.4
20260510022139 13 251 0.0 0.0 0.00 0.00 0.00 75 1014.4
20260510021648 13 250 0.0 0.0 0.00 0.00 0.00 74 1014.3
20260510021148 13 250 0.0 0.0 0.00 0.00 0.00 74 1014.2
20260510020639 13 250 0.0 0.0 0.00 0.00 0.00 74 1014.1
20260510020148 13 250 0.0 0.0 0.00 0.00 0.00 74 1014.1
20260510015639 13 250 0.0 0.0 0.00 0.00 0.00 73 1014.0
20260510015139 13 250 0.0 0.0 0.00 0.00 0.00 73 1014.0
20260510014648 13 250 0.0 0.0 0.00 0.00 0.00 73 1013.9
20260510014139 13 250 0.0 0.0 0.00 0.00 0.00 72 1013.7
20260510013639 13 250 0.0 0.0 0.00 0.00 0.00 72 1013.6
20260510013142 13 249 0.0 0.0 0.00 0.00 0.00 71 1013.5
20260510012642 13 248 0.0 0.0 0.00 0.00 0.00 71 1013.3
20260510012139 14 248 0.0 0.0 0.00 0.00 0.00 71 1013.2
20260510011639 14 248 0.0 0.0 0.00 0.00 0.00 71 1013.0
20260510011145 14 248 0.0 0.0 0.00 0.00 0.00 71 1013.1
20260510010639 14 244 0.0 0.0 0.00 0.00 0.00 70 1013.0
20260510010142 14 244 0.0 0.0 0.00 0.00 0.00 70 1013.0
20260510005642 15 244 0.0 0.0 0.00 0.00 0.00 69 1012.8
20260510005139 15 244 0.0 0.0 0.00 0.00 0.00 69 1012.8
20260510004642 15 244 0.0 0.0 0.00 0.00 0.00 68 1012.9
20260510004142 15 244 0.0 0.0 0.00 0.00 0.00 68 1012.7
20260510003639 15 244 0.0 0.0 0.00 0.00 0.00 67 1012.7
20260510003139 16 243 0.0 0.0 0.00 0.00 0.00 66 1012.7
20260510002639 16 243 0.0 0.0 0.00 0.00 0.00 65 1012.6
20260510002142 16 243 0.0 0.0 0.00 0.00 0.00 64 1012.6
20260510001642 16 243 0.0 0.0 0.00 0.00 0.00 63 1012.5
20260510001139 17 243 0.0 0.0 0.00 0.00 0.00 62 1012.3
20260510000642 17 243 0.0 0.0 0.00 0.00 0.00 61 1012.3
20260510000139 17 243 0.0 0.0 0.00 0.00 0.00 60 1012.2
20260509235645 17 243 0.0 0.0 0.00 0.00 0.00 59 1012.0
20260509235142 18 243 0.0 0.0 0.00 0.00 0.00 57 1011.9
20260509234639 18 243 0.0 0.0 0.00 0.00 0.00 56 1011.9
20260509234145 18 242 0.0 0.0 0.00 0.00 0.00 57 1011.8
20260509233642 18 243 0.0 0.0 0.00 0.00 0.00 56 1011.8
20260509233142 19 242 0.0 0.0 0.00 0.00 0.00 55 1011.6
20260509232639 19 242 0.0 0.0 0.00 0.00 0.00 54 1011.5
20260509232139 19 242 0.0 0.0 0.00 0.00 0.00 53 1011.5
20260509231645 20 61 0.0 0.0 0.00 0.00 0.00 53 1011.5
20260509231147 20 60 0.0 0.0 0.00 0.00 0.00 52 1011.4
20260509230639 20 69 0.0 0.0 0.00 0.00 0.00 52 1011.3
20260509230139 20 234 0.0 0.0 0.00 0.00 0.00 50 1011.3